Lapse_Rate
8.9 9.1 9.2 9.3 9.2 9.1 9.2 8.9 8.1 7.9 7.9 8.1 8.2 8.9 9.2 9.2 9.2 7.8 7.6 6.5 6.1 5.7 6.1 7.0 6.5 6.5 7.1 7.8 7.7 7.9 8.3 9.4 9.5 9.4 8.6 8.1 7.4 7.1 6.5 6.6 6.7 6.5 6.5 6.9 6.8 6.8 6.8
9.0 9.1 9.2 9.3 9.3 8.9 8.5 8.2 8.3 8.1 7.8 7.7 8.0 8.3 8.7 8.4 8.9 7.0 5.9 6.1 6.5 6.0 6.1 6.6 6.4 7.4 7.1 6.6 9.2 8.3 9.1 9.4 9.4 9.0 8.5 8.3 7.7 7.8 6.9 6.6 6.5 6.7 6.7 6.7 6.8 6.8 6.7
8.6 9.2 9.2 9.3 9.2 9.4 9.1 8.5 7.8 8.2 7.9 7.9 7.9 8.0 8.3 7.9 7.9 7.2 6.3 5.9 6.3 6.1 5.7 7.0 7.0 8.0 8.1 7.6 9.8 9.6 9.8 9.4 9.5 9.1 8.2 8.4 8.2 7.4 7.4 6.5 7.3 6.9 6.5 6.5 6.5 6.6 6.5
8.8 9.1 9.2 9.2 9.3 9.3 9.3 8.5 8.2 7.8 8.0 8.1 8.0 7.8 8.0 8.4 7.6 6.9 6.2 5.9 5.8 5.3 5.2 7.5 6.9 8.0 7.3 9.1 9.5 9.5 9.6 9.2 9.6 9.5 9.0 9.1 8.8 7.8 7.3 7.4 6.8 6.5 6.5 6.5 6.5 6.5 6.4
8.1 8.3 8.8 8.9 9.2 9.2 8.0 8.8 8.6 8.1 8.0 8.3 7.6 8.2 7.9 7.9 7.7 7.0 5.8 6.2 5.8 5.9 6.4 7.9 7.4 7.5 7.0 7.8 8.1 9.4 9.5 8.6 8.9 9.0 9.1 9.1 8.2 7.1 7.2 6.5 6.5 6.5 6.5 6.5 6.5 6.5 6.5
7.6 7.9 7.8 7.9 7.9 8.4 7.9 9.1 8.6 8.1 8.8 8.2 8.5 8.0 7.6 7.7 7.3 7.4 6.2 5.8 6.4 7.2 6.9 8.3 7.8 7.3 8.1 7.6 8.7 9.1 9.5 9.1 8.3 8.1 7.8 7.6 7.1 6.5 6.5 6.5 6.5 6.5 6.5 6.5 6.5 6.5 6.5
6.9 7.2 6.8 6.2 7.0 8.1 8.5 8.9 8.8 8.2 6.7 7.7 8.0 8.4 7.6 7.4 7.2 6.8 6.9 6.0 6.8 6.9 6.4 7.3 7.4 7.4 7.9 8.5 8.8 8.4 9.1 8.5 8.2 7.5 6.5 6.8 6.5 6.5 6.5 6.5 6.5 6.5 6.5 6.5 6.5 6.5 6.5
6.8 6.7 5.8 7.3 7.5 8.7 9.2 9.1 9.2 7.9 7.4 8.3 8.0 7.4 7.4 7.6 6.5 6.8 6.7 6.5 7.6 6.5 6.7 6.6 7.7 8.1 8.5 8.5 7.3 8.0 9.0 7.2 6.9 6.5 6.5 6.5 6.5 6.5 6.5 6.5 6.5 6.5 6.5 6.5 6.5 6.5 6.5
6.2 7.5 7.0 6.8 9.1 9.2 9.1 9.0 8.9 9.0 8.7 7.8 7.7 7.4 7.0 7.2 6.9 6.3 7.7 7.3 7.0 7.4 6.7 7.2 7.9 7.8 7.9 8.0 7.1 7.2 8.1 7.4 6.5 6.5 6.5 6.5 6.5 6.5 6.5 6.5 6.5 6.5 6.5 6.5 6.5 6.5 6.5
7.0 6.9 8.3 9.1 9.0 9.0 9.2 8.7 8.2 8.1 8.3 7.2 7.1 7.1 7.4 7.7 6.5 7.3 6.7 6.4 6.3 7.6 6.5 6.5 6.7 7.5 8.0 7.9 6.7 8.3 8.4 7.4 6.6 6.5 6.5 6.5 6.5 6.5 6.5 6.5 6.5 6.5 6.5 6.5 6.5 6.5 6.5
6.7 7.9 9.0 9.1 8.5 8.1 8.4 8.2 7.9 7.4 7.2 6.4 6.7 7.3 7.5 7.5 7.2 7.6 6.9 5.7 7.1 7.9 6.5 6.5 6.7 8.7 8.0 6.9 7.0 7.2 8.6 7.5 6.5 6.5 6.5 6.5 6.5 6.5 6.5 6.5 6.5 6.5 6.5 6.5 6.5 6.5 6.5
7.7 8.9 8.3 8.8 7.8 8.0 7.9 7.5 7.4 6.8 6.8 6.9 6.8 7.4 7.8 8.1 7.4 7.3 6.3 7.6 7.1 6.5 6.5 6.5 6.7 6.5 6.5 6.8 6.8 7.3 7.3 7.8 7.4 6.5 6.5 6.5 6.8 6.5 6.5 6.5 6.5 6.5 6.5 6.5 6.5 6.5 6.5
7.2 8.2 8.2 8.0 7.8 8.1 7.7 8.1 7.6 7.3 7.4 6.7 6.9 7.6 7.9 9.5 7.4 7.5 7.6 6.9 6.5 6.5 6.5 6.5 6.5 6.5 6.5 6.5 6.5 6.5 6.5 6.5 6.5 6.5 6.5 6.5 6.5 6.5 6.6 6.5 6.5 6.5 6.5 6.5 6.5 6.5 6.5
7.5 8.2 8.4 8.3 7.9 8.1 7.7 7.8 7.7 8.0 7.9 7.2 7.1 7.7 7.7 9.5 7.4 7.8 7.1 6.5 6.5 6.5 6.5 6.5 6.5 6.5 6.5 6.5 6.5 6.5 6.5 6.5 6.5 6.5 6.5 6.5 6.5 6.5 6.5 6.5 6.5 6.5 6.5 6.5 6.5 6.5 6.5
7.9 8.2 8.2 8.0 8.0 8.1 8.0 7.8 7.4 7.5 7.2 7.4 7.6 8.5 8.7 8.6 7.6 7.6 6.9 6.5 6.5 6.5 6.5 6.5 6.5 6.5 6.5 6.5 6.5 6.5 6.5 6.5 6.5 6.5 6.5 6.5 6.5 6.5 6.5 6.5 6.5 6.5 6.5 6.5 6.5 6.5 6.5
7.7 8.4 8.6 8.2 8.0 8.0 8.0 7.6 7.2 7.1 6.9 6.9 7.3 7.8 7.4 9.4 8.7 7.1 6.6 6.5 6.5 6.5 6.5 6.5 6.5 6.5 6.5 6.5 6.5 6.5 6.5 6.5 6.5 6.5 6.5 6.5 6.5 6.5 6.5 6.6 6.5 6.5 6.5 6.5 6.5 6.5 6.5
7.9 8.4 8.5 8.2 8.0 7.9 7.5 7.4 7.0 6.7 6.7 6.8 7.8 7.3 7.3 8.5 8.6 6.6 6.5 6.5 6.5 6.9 6.8 6.5 6.5 6.5 6.5 6.5 6.5 6.5 6.5 6.5 6.5 6.5 6.5 6.5 6.5 6.5 6.5 6.5 6.5 6.5 6.5 6.5 6.5 6.5 6.5
8.1 8.6 8.8 8.3 7.7 7.6 7.4 7.2 6.8 6.4 6.1 6.9 7.6 6.5 7.3 7.4 6.5 6.6 6.5 6.5 6.7 6.6 7.0 6.5 6.5 6.5 6.5 6.5 6.5 6.5 6.5 6.5 6.8 6.6 6.5 6.5 6.5 6.5 6.5 6.5 6.5 6.5 6.5 6.5 6.5 6.5 6.5
8.2 8.4 8.6 8.4 7.8 7.2 6.7 6.6 6.7 6.9 6.9 8.0 6.7 6.4 6.9 7.4 6.5 6.5 6.5 6.5 6.7 6.5 6.5 6.5 6.5 6.5 6.5 6.5 6.5 6.5 6.5 6.6 6.8 6.5 6.5 6.5 6.5 6.5 6.5 6.5 6.5 6.5 6.5 6.5 6.5 6.5 6.5
8.4 7.4 7.2 8.2 7.7 7.0 6.9 5.9 6.2 6.4 6.6 6.7 7.1 6.5 6.7 6.8 7.2 6.5 6.5 6.5 6.5 6.9 6.5 6.7 6.5 6.5 6.5 6.5 6.5 6.5 6.5 6.5 6.7 6.6 6.2 6.5 6.5 6.5 6.5 6.5 6.5 6.5 6.5 6.5 6.5 6.5 6.5
6.7 7.0 6.9 7.3 7.2 6.9 7.0 6.9 5.8 6.3 6.2 6.2 7.3 6.7 7.1 6.5 6.5 6.5 6.5 6.5 6.5 6.5 6.7 6.7 6.5 6.5 6.5 6.5 6.5 6.5 6.5 6.5 6.5 6.6 6.5 6.5 6.5 6.5 6.5 6.5 6.5 6.5 6.5 6.5 6.5 6.5 6.5
5.5 6.4 6.3 6.7 6.8 6.7 6.9 6.6 6.1 6.4 6.0 6.5 7.0 6.7 7.3 6.5 6.9 6.5 6.5 6.5 6.5 6.5 6.5 6.5 6.5 6.5 6.5 6.5 6.5 6.5 6.5 6.5 6.5 6.5 6.5 6.5 6.5 6.5 6.5 6.5 6.5 6.5 6.5 6.5 6.5 6.5 6.5
5.0 6.0 5.8 6.2 5.7 5.4 5.3 6.3 6.5 5.6 5.8 7.3 7.0 7.6 7.2 6.6 6.5 6.5 6.5 6.5 6.5 6.5 6.7 6.7 6.5 6.5 6.5 6.5 6.2 6.5 6.3 6.1 6.4 6.5 6.5 6.5 6.5 6.5 6.5 6.5 6.5 6.5 6.5 6.5 6.5 6.5 6.5
5.0 5.5 5.8 4.9 4.3 4.8 4.5 3.9 4.1 4.9 5.6 7.9 7.4 7.4 6.6 6.5 6.5 6.5 6.5 6.6 6.5 6.5 6.5 6.6 6.7 6.5 6.9 6.7 6.1 7.1 6.3 6.1 6.1 6.4 6.0 6.5 6.5 6.5 6.5 6.5 6.5 6.5 6.5 6.5 6.5 6.5 6.5
4.7 5.0 5.1 4.9 2.2 3.7 4.4 4.2 4.4 5.2 5.8 6.6 6.7 6.3 6.4 6.5 6.6 6.5 6.5 6.5 6.6 6.6 6.6 6.6 7.0 6.6 6.5 6.2 6.5 6.5 6.5 6.5 6.5 6.5 6.5 6.5 6.5 6.5 6.5 6.5 6.5 6.5 6.5 6.5 6.5 6.5 6.5
4.6 4.7 4.7 4.4 3.9 3.2 4.1 5.1 5.4 5.7 5.9 5.4 4.9 4.5 6.2 6.1 6.5 6.8 6.4 6.6 6.5 6.5 6.5 6.7 6.8 6.2 5.8 6.5 6.5 6.5 6.5 6.5 6.5 6.5 6.5 6.5 6.5 6.5 6.5 6.5 6.5 6.5 6.5 6.7 6.5 6.5 6.4
4.3 4.5 4.5 4.7 5.1 4.4 3.7 4.4 5.4 5.8 5.6 5.2 4.9 4.5 4.9 5.9 6.7 5.9 6.4 6.5 6.4 6.5 6.5 6.5 6.8 6.5 5.7 6.5 6.5 6.5 6.5 6.5 6.5 6.5 6.5 6.5 6.5 6.5 6.5 6.5 6.5 6.5 6.3 6.7 6.5 6.5 5.9
3.9 4.4 4.4 4.7 5.2 5.4 5.0 4.9 5.0 5.5 5.9 5.8 4.3 4.8 4.5 5.9 5.8 5.9 5.2 6.3 6.3 5.9 6.5 6.1 6.3 6.1 6.2 6.5 6.5 6.5 6.5 6.5 6.5 6.5 6.5 6.5 6.5 6.5 6.5 6.5 6.5 5.8 6.4 6.5 6.2 5.8 6.0
3.7 4.4 4.6 5.2 5.4 5.6 5.5 5.7 5.5 5.4 5.3 5.7 5.5 5.2 5.4 4.6 4.4 4.7 4.2 3.9 3.4 3.7 4.0 6.1 6.1 6.0 5.6 6.5 6.5 6.5 6.5 6.5 6.5 6.5 6.5 6.5 6.5 6.5 6.5 6.5 6.2 5.5 6.1 6.1 6.0 5.5 6.2
Wind_Speed
24 26 26 26 26 26 26 26 24 22 22 22 22 21 22 21 21 23 24 26 28 17 14 10 7 8 4 6 7 17 13 10 7 5 6 5 6 5 7 8 9 15 16 18 16 16 18
26 26 26 27 27 27 27 26 25 22 24 21 23 21 21 21 21 24 25 24 32 18 15 10 9 11 4 8 7 16 14 10 4 6 6 5 4 5 6 7 11 9 16 17 16 20 19
26 27 27 28 28 29 28 27 27 25 24 23 21 21 20 21 22 22 24 28 8 14 13 9 13 6 6 8 2 12 8 7 3 5 4 1 1 5 2 7 7 14 17 19 20 15 19
26 27 29 29 29 29 30 29 25 28 24 22 21 23 19 19 21 25 28 17 15 17 12 10 12 5 5 5 2 8 8 6 7 4 1 1 4 3 5 8 7 7 13 13 9 14 17
28 28 27 27 27 29 31 30 28 26 25 22 19 22 19 16 18 21 17 16 13 13 13 10 5 5 3 6 6 9 9 9 10 6 3 4 5 5 5 3 5 9 7 12 14 13 13
32 31 29 28 28 30 38 35 33 31 28 26 21 14 22 15 15 14 3 5 7 7 8 6 1 5 6 6 7 6 5 6 4 6 5 3 1 1 3 5 5 9 8 13 16 4 12
34 35 32 20 27 41 36 34 29 24 25 22 24 13 16 13 16 17 2 5 4 2 3 4 9 1 10 7 5 5 7 8 6 6 4 5 2 7 10 11 15 18 18 18 18 11 5
38 36 31 28 27 31 30 28 28 17 22 26 17 15 11 9 13 7 9 2 2 4 3 13 11 7 6 2 4 7 7 7 8 7 8 2 9 11 12 14 15 17 18 19 15 9 8
33 30 28 27 29 30 31 29 27 24 21 18 17 8 6 11 2 3 2 2 4 3 1 8 11 5 2 4 3 11 8 6 6 7 8 8 9 9 9 13 13 11 16 15 8 10 7
28 31 29 30 33 34 33 28 26 22 17 15 13 12 12 8 2 4 2 1 5 4 2 6 5 4 5 3 3 4 7 4 5 4 7 8 14 10 12 10 9 11 6 14 5 2 4
26 27 30 33 33 32 33 27 22 19 13 11 13 8 12 8 4 1 3 12 5 3 4 5 6 2 8 5 7 6 3 4 6 5 3 4 6 0 8 6 3 7 11 14 9 8 3
28 29 31 31 31 29 29 26 18 14 7 9 1 9 6 3 2 4 6 2 1 2 2 4 4 6 7 7 4 6 5 3 5 4 7 12 8 4 5 6 8 10 9 10 9 7 3
27 28 28 27 30 29 23 27 17 13 9 9 12 8 2 3 2 9 4 2 2 3 3 5 6 7 4 6 5 7 7 6 2 2 3 4 10 1 2 5 5 6 5 3 3 1 2
26 27 27 25 25 25 22 22 19 15 12 9 8 5 2 7 10 7 3 1 3 6 6 5 6 8 2 8 4 5 3 2 8 5 3 3 3 2 3 2 3 3 3 3 4 3 2
26 25 25 22 21 21 20 16 14 13 10 7 2 1 3 4 9 2 2 1 5 3 3 6 8 5 5 3 1 4 4 2 2 2 2 5 2 4 2 3 3 2 4 5 3 5 1
23 23 23 22 20 17 15 12 8 9 8 6 1 2 7 4 9 2 1 4 3 5 7 2 3 1 4 4 2 2 5 4 2 3 6 2 3 3 5 4 9 6 8 4 1 5 4
23 21 21 18 17 17 13 11 5 4 6 9 2 3 7 8 0 3 3 4 3 5 3 3 6 4 8 4 2 2 3 3 3 4 3 1 1 1 4 2 4 2 4 3 2 3 2
22 21 20 18 15 14 11 11 2 4 7 5 3 3 4 3 3 2 3 5 3 8 2 3 5 9 4 3 3 4 5 4 1 2 2 4 2 1 0 4 3 4 6 5 1 5 6
20 19 19 19 17 15 9 8 3 5 11 2 3 1 3 3 2 2 2 3 4 7 6 6 4 5 5 4 2 4 4 3 3 4 4 4 2 3 3 2 1 4 8 5 2 2 3
21 21 18 19 19 19 15 12 6 3 6 4 3 2 2 2 3 2 2 4 3 2 2 5 3 0 2 3 3 3 4 1 4 3 4 3 5 4 3 2 3 5 9 7 4 5 9
22 22 20 19 21 20 17 15 12 7 5 3 2 3 2 1 2 6 3 2 3 4 2 3 1 2 5 3 5 4 3 4 5 1 2 4 3 5 4 5 4 6 8 11 8 7 8
22 22 21 22 22 19 17 12 10 13 5 2 1 3 2 4 5 5 1 1 6 4 6 5 4 6 11 7 6 5 3 6 5 2 2 0 1 2 4 6 5 7 10 9 9 10 10
23 23 23 25 26 20 13 12 12 20 14 1 1 1 2 3 1 1 2 4 6 5 1 5 8 6 8 5 6 4 3 4 4 5 5 3 1 3 2 4 6 4 5 6 3 7 4
22 25 25 27 25 12 11 7 26 24 21 2 2 2 2 2 3 1 4 3 6 6 4 6 8 6 3 9 9 1 5 5 7 6 4 4 2 1 2 3 3 3 2 4 5 5 5
21 23 26 28 19 7 14 20 26 27 17 3 3 3 2 3 3 4 3 4 3 4 3 3 4 4 7 6 2 2 3 2 4 4 5 5 3 2 2 1 3 3 3 2 1 3 2
18 19 21 24 17 14 17 15 12 11 7 4 2 2 3 2 5 5 4 2 2 2 4 2 2 4 4 2 2 3 3 3 3 1 0 4 2 1 3 1 2 3 4 1 0 1 6
16 18 18 21 13 15 18 19 12 13 13 4 2 4 3 2 1 3 1 1 2 2 3 2 2 1 1 3 1 1 1 1 2 3 2 1 2 2 3 1 4 5 6 2 2 4 5
15 15 16 14 9 11 18 19 12 2 5 2 1 4 2 2 2 3 4 3 2 3 2 2 2 2 2 2 1 0 2 1 2 2 2 2 2 3 1 1 6 5 3 2 3 4 5
14 15 15 12 5 7 13 10 7 4 4 6 1 2 4 3 2 4 3 3 3 4 3 2 0 1 1 1 1 1 2 1 2 2 1 3 2 1 2 4 1 6 3 2 2 4 4
Wind_Direction
333 333 329 327 323 321 320 319 318 309 304 305 305 307 315 318 321 321 314 312 316 187 180 188 187 172 187 215 247 144 152 147 167 198 204 206 223 258 253 265 275 270 274 274 266 257 264
328 325 325 325 324 323 321 317 315 313 306 301 297 302 310 317 321 320 317 311 311 188 164 171 166 172 242 238 88 148 168 161 227 198 210 227 214 269 298 262 270 284 293 292 280 278 254
325 324 323 326 326 326 323 322 313 308 307 306 297 298 306 315 320 321 312 310 209 163 145 164 161 191 246 233 187 152 170 191 199 226 247 101 8 178 167 256 282 296 278 276 268 261 254
321 321 324 326 325 323 321 318 313 308 302 303 299 297 301 310 320 325 320 293 160 145 138 186 156 216 246 111 205 164 181 215 202 202 199 322 260 192 230 316 291 278 260 269 257 250 244
316 315 317 318 320 321 314 310 307 305 302 306 314 296 294 303 317 331 1 113 129 134 139 170 130 237 238 126 198 198 205 220 171 168 188 119 141 157 165 239 284 239 261 242 268 238 265
317 314 314 317 324 328 318 310 315 309 301 306 289 277 293 297 312 320 34 106 117 130 141 163 278 187 220 192 168 159 180 209 185 162 158 167 134 208 249 195 248 302 297 287 283 306 320
314 311 304 334 335 325 319 313 319 319 324 308 299 316 277 295 312 295 203 106 93 55 288 179 179 232 127 84 109 185 178 188 211 202 223 134 193 234 240 229 248 270 282 287 286 289 250
313 321 0 341 324 311 319 320 321 324 306 299 300 311 301 300 336 307 145 235 172 110 223 232 255 203 86 355 154 168 171 208 182 210 224 152 245 247 258 263 270 272 274 280 283 323 182
336 351 346 334 327 327 322 320 314 309 315 322 313 327 348 307 329 63 193 339 347 306 239 160 200 193 169 193 218 168 193 199 255 232 223 226 260 282 265 252 257 258 259 272 301 326 248
355 347 344 338 336 333 327 317 318 306 306 322 317 282 260 257 279 142 185 352 312 324 199 141 163 174 168 234 216 158 201 297 208 255 254 263 254 245 265 256 279 271 292 288 225 288 268
352 348 347 345 346 340 331 323 325 320 302 302 299 249 220 201 347 243 51 185 226 213 190 119 123 160 154 194 132 180 154 187 267 262 225 254 316 297 292 287 301 259 321 305 233 257 279
354 353 353 354 357 359 10 21 28 31 16 336 32 189 137 183 226 90 83 64 309 212 112 118 127 160 157 209 177 131 193 213 284 299 258 264 251 220 277 307 272 305 297 300 285 265 206
354 356 359 2 14 8 10 14 24 21 38 55 112 111 143 352 68 129 119 23 179 291 203 135 143 172 156 166 173 175 180 194 199 257 234 215 227 91 359 325 289 252 292 269 238 259 6
353 358 4 3 16 15 8 15 30 39 53 76 96 124 11 22 81 113 75 43 253 65 57 127 148 158 162 143 150 166 197 263 220 234 290 243 179 28 30 228 320 352 214 290 332 353 31
354 358 2 6 10 15 17 25 38 42 54 52 54 37 66 74 92 5 13 302 25 48 343 128 147 126 106 139 241 188 221 273 122 205 316 340 84 127 271 326 277 188 235 301 261 210 36
354 357 2 13 11 12 16 20 33 42 39 357 334 86 31 71 93 74 22 30 65 358 2 140 24 54 132 143 207 207 147 45 97 39 49 353 276 21 321 298 241 245 318 345 241 354 50
350 355 357 6 15 24 18 18 42 39 1 337 271 78 5 78 189 22 16 49 343 338 338 21 350 120 109 133 56 228 90 90 39 86 43 341 265 322 245 188 6 258 328 266 272 166 47
348 353 350 353 353 356 359 13 338 327 331 317 41 72 340 288 45 12 11 349 335 321 91 324 319 43 91 146 41 35 71 62 106 85 274 202 326 308 99 167 267 279 300 317 23 348 59
343 348 344 340 345 333 317 316 323 317 339 336 72 47 333 329 65 70 320 353 322 341 41 16 13 34 346 55 54 60 84 11 322 326 358 345 15 319 146 178 269 323 360 338 353 21 332
340 343 341 335 332 323 307 267 259 240 316 325 129 93 22 336 259 106 32 5 354 57 14 4 327 336 270 61 18 119 102 139 294 10 296 283 24 22 88 140 271 343 7 14 38 55 77
340 339 335 331 326 323 320 331 218 222 240 313 358 101 195 187 90 97 83 277 53 50 31 326 284 1 338 94 89 51 54 190 192 264 297 43 38 15 69 64 29 22 30 20 50 86 98
336 335 334 331 325 318 309 296 214 199 204 274 129 150 178 90 78 89 24 211 63 54 18 22 24 25 49 44 -0 85 350 10 41 347 54 58 155 271 54 26 66 59 26 22 11 73 99
330 338 339 337 332 327 296 273 207 183 189 252 270 300 106 43 333 240 127 34 69 345 83 26 341 342 53 7 354 33 63 70 70 12 12 28 52 9 355 3 333 25 5 46 18 30 76
334 337 340 341 343 356 350 307 165 169 201 346 330 315 164 109 212 222 126 53 80 40 13 41 9 19 354 325 306 104 79 70 54 27 24 338 103 37 287 335 34 184 63 346 44 44 63
336 341 341 339 349 80 73 112 147 181 199 327 356 336 8 119 245 287 148 117 150 111 57 30 21 340 333 300 277 243 204 209 92 46 6 7 320 42 65 9 179 165 184 180 243 177 192
337 341 341 340 345 134 123 131 173 197 292 312 69 295 294 146 202 314 187 189 182 106 146 85 97 269 324 282 325 352 41 324 355 204 16 307 279 58 28 42 258 125 128 86 32 270 143
334 336 346 352 9 148 150 146 174 230 267 274 28 349 279 123 80 333 253 244 356 298 79 137 177 262 161 323 5 11 55 165 285 301 19 293 344 229 257 295 309 136 143 187 130 204 137
326 332 340 351 355 140 155 152 148 106 280 275 49 326 318 50 95 343 5 332 323 287 175 133 86 250 298 334 3 50 309 41 320 193 293 233 188 204 230 192 266 125 60 165 184 91 127
322 329 328 328 313 139 130 131 156 154 308 340 111 274 340 46 90 61 65 56 16 357 327 10 165 348 356 65 274 318 245 181 306 286 9 293 203 249 207 219 195 191 83 110 70 141 150